User: anonymous   Login
Location: Saddleback Butte
(34.6776°N, 117.8050°W)
Time: 20:55:56
(UTC-07:00)
Language:

Cosmos 1862 Rocket - Orbit

View from above orbital plane
View from above orbital plane
View from above satellite
View from above satellite

Ground track
Ground track

The orbit data is extracted from the following two-line orbital elements,

1 18153U 87055B   17290.58784982 +.00000113 +00000-0 +10824-4 0  9997
2 18153 082.5020 349.5728 0022626 043.5278 316.7717 14.83197237615427
Epoch (UTC): 17 October 2017 14:06:30
Eccentricity: 0.0022626
inclination: 82.5020°
perigee height: 603 km
apogee height: 635 km
right ascension of ascending node: 349.5728°
argument of perigee: 43.5278°
revolutions per day: 14.83197237
mean anomaly at epoch: 316.7717°
orbit number at epoch: 61542

The dashed part of the orbit path shows where the satellite is in the earth's shadow,  

DLR